• In Netherlands
  • List of Countries
  • For 7 days
  • Water Temperature
  • Satellite Maps
  • Weather Map
  • Weather Widgets
  • user-avatar
    Login

    Hourly Weather Saurimo

    Today, 24 February, Friday

    Time Temperature Precipitation Wind Pressure Humidity
    00:00 +20°C° 0 mm 1 mps 669 mmHg 92%
    01:00 +20°C° 0 mm 1 mps 669 mmHg 93%
    02:00 +19°C° 0 mm 1 mps 669 mmHg 94%
    03:00 +19°C° 0 mm 1 mps 669 mmHg 96%
    04:00 +19°C° 0 mm 1 mps 669 mmHg 97%
    05:00 +20°C° 0.1 mm 1 mps 669 mmHg 95%
    06:00 +20°C° 0.1 mm 1 mps 669 mmHg 93%
    07:00 +21°C° 0.1 mm 1 mps 670 mmHg 92%
    08:00 +23°C° 0.2 mm 2 mps 670 mmHg 82%
    09:00 +26°C° 0.2 mm 2 mps 670 mmHg 72%
    10:00 +28°C° 0.2 mm 3 mps 671 mmHg 63%
    11:00 +29°C° 0.5 mm 2 mps 670 mmHg 61%
    12:00 +29°C° 0.5 mm 2 mps 670 mmHg 60%
    13:00 +30°C° 0.5 mm 2 mps 670 mmHg 58%
    14:00 +29°C° 0.7 mm 2 mps 669 mmHg 61%
    15:00 +29°C° 0.7 mm 1 mps 669 mmHg 63%
    16:00 +29°C° 0.7 mm 1 mps 668 mmHg 66%
    17:00 +27°C° 0.7 mm 1 mps 668 mmHg 72%
    18:00 +25°C° 0.7 mm 1 mps 669 mmHg 78%
    19:00 +24°C° 0.7 mm 1 mps 669 mmHg 84%
    20:00 +23°C° 0.4 mm 1 mps 669 mmHg 86%
    21:00 +23°C° 0.4 mm 1 mps 669 mmHg 88%
    22:00 +22°C° 0.4 mm 1 mps 669 mmHg 90%
    23:00 +22°C° 0.6 mm 1 mps 669 mmHg 91%

    Tomorrow, 25 February, Saturday

    Time Temperature Precipitation Wind Pressure Humidity
    00:00 +22°C° 0.6 mm 1 mps 669 mmHg 92%
    01:00 +21°C° 0.6 mm 1 mps 669 mmHg 93%
    02:00 +20°C° 2.1 mm 2 mps 669 mmHg 94%
    03:00 +20°C° 2.1 mm 2 mps 669 mmHg 94%
    04:00 +20°C° 2.1 mm 2 mps 669 mmHg 94%
    05:00 +20°C° 1.2 mm 2 mps 669 mmHg 95%
    06:00 +20°C° 1.2 mm 2 mps 670 mmHg 95%
    07:00 +20°C° 1.2 mm 2 mps 670 mmHg 95%
    08:00 +21°C° 0.3 mm 2 mps 671 mmHg 91%
    09:00 +23°C° 0.3 mm 2 mps 671 mmHg 86%
    10:00 +24°C° 0.3 mm 2 mps 671 mmHg 81%
    11:00 +25°C° 0.3 mm 2 mps 671 mmHg 80%
    12:00 +25°C° 0.3 mm 2 mps 670 mmHg 78%
    13:00 +25°C° 0.3 mm 2 mps 670 mmHg 77%
    14:00 +25°C° 0.1 mm 2 mps 669 mmHg 77%
    15:00 +25°C° 0.1 mm 2 mps 669 mmHg 77%
    16:00 +25°C° 0.1 mm 2 mps 668 mmHg 77%
    17:00 +24°C° 0 mm 2 mps 669 mmHg 82%
    18:00 +23°C° 0 mm 1 mps 669 mmHg 87%
    19:00 +22°C° 0 mm 1 mps 669 mmHg 91%
    20:00 +22°C° 0 mm 1 mps 669 mmHg 93%
    21:00 +21°C° 0 mm 1 mps 670 mmHg 94%
    22:00 +21°C° 0 mm 1 mps 670 mmHg 96%
    23:00 +20°C° 0 mm 1 mps 669 mmHg 97%

    Day after tomorrow, 26 February, Sunday

    Time Temperature Precipitation Wind Pressure Humidity
    00:00 +20°C° 0 mm 1 mps 669 mmHg 97%
    01:00 +17°C° 0 mm 0 mps 668 mmHg 98%
    02:00 +17°C° 0.7 mm 0 mps 668 mmHg 98%
    03:00 +19°C° 0.7 mm 1 mps 668 mmHg 97%
    04:00 +19°C° 0.7 mm 1 mps 668 mmHg 97%
    05:00 +18°C° 0.8 mm 0 mps 668 mmHg 96%
    06:00 +19°C° 0.8 mm 0 mps 669 mmHg 95%
    07:00 +19°C° 0.8 mm 0 mps 670 mmHg 94%
    08:00 +23°C° 0.4 mm 1 mps 670 mmHg 88%
    09:00 +25°C° 0.4 mm 1 mps 670 mmHg 81%
    10:00 +27°C° 0.4 mm 1 mps 671 mmHg 75%
    11:00 +27°C° 1 mm 1 mps 670 mmHg 74%
    12:00 +27°C° 1 mm 2 mps 669 mmHg 72%
    13:00 +28°C° 1 mm 2 mps 668 mmHg 71%
    14:00 +27°C° 1.2 mm 2 mps 668 mmHg 75%
    15:00 +27°C° 1.2 mm 2 mps 667 mmHg 78%
    16:00 +27°C° 1.2 mm 2 mps 667 mmHg 81%
    17:00 +25°C° 1 mm 1 mps 667 mmHg 86%
    18:00 +24°C° 1 mm 1 mps 667 mmHg 90%
    19:00 +22°C° 1 mm 1 mps 668 mmHg 94%
    20:00 +22°C° 0.3 mm 1 mps 668 mmHg 95%
    21:00 +22°C° 0.3 mm 1 mps 668 mmHg 95%
    22:00 +22°C° 0.3 mm 1 mps 669 mmHg 96%
    23:00 +22°C° 0.7 mm 1 mps 668 mmHg 96%

    27 February, Monday

    Time Temperature Precipitation Wind Pressure Humidity
    00:00 +21°C° 0.7 mm 1 mps 668 mmHg 96%
    01:00 +21°C° 0.7 mm 1 mps 667 mmHg 96%
    02:00 +21°C° 0 mm 1 mps 667 mmHg 96%
    03:00 +21°C° 0 mm 1 mps 667 mmHg 96%
    04:00 +21°C° 0 mm 1 mps 667 mmHg 96%
    05:00 +21°C° 0.1 mm 1 mps 667 mmHg 95%
    06:00 +21°C° 0.1 mm 1 mps 668 mmHg 94%
    07:00 +22°C° 0.1 mm 1 mps 669 mmHg 93%
    08:00 +23°C° 0.1 mm 2 mps 669 mmHg 85%
    09:00 +25°C° 0.1 mm 2 mps 669 mmHg 76%
    10:00 +27°C° 0.1 mm 3 mps 670 mmHg 68%
    11:00 +28°C° 0.6 mm 3 mps 669 mmHg 65%
    12:00 +28°C° 0.6 mm 3 mps 669 mmHg 62%
    13:00 +29°C° 0.6 mm 3 mps 668 mmHg 59%
    14:00 +29°C° 0.4 mm 3 mps 667 mmHg 63%
    15:00 +28°C° 0.4 mm 3 mps 667 mmHg 67%
    16:00 +28°C° 0.4 mm 2 mps 667 mmHg 71%
    17:00 +26°C° 0.2 mm 2 mps 667 mmHg 77%
    18:00 +24°C° 0.2 mm 2 mps 667 mmHg 84%
    19:00 +22°C° 0.2 mm 1 mps 667 mmHg 90%
    20:00 +22°C° 0.4 mm 1 mps 668 mmHg 91%
    21:00 +22°C° 0.4 mm 1 mps 668 mmHg 92%
    22:00 +21°C° 0.4 mm 1 mps 668 mmHg 93%
    23:00 +21°C° 0.6 mm 1 mps 668 mmHg 94%

    28 February, Tuesday

    Time Temperature Precipitation Wind Pressure Humidity
    00:00 +20°C° 0.6 mm 1 mps 667 mmHg 95%
    01:00 +20°C° 0.6 mm 1 mps 667 mmHg 95%
    02:00 +20°C° 0 mm 1 mps 667 mmHg 95%
    03:00 +20°C° 0 mm 1 mps 667 mmHg 95%
    04:00 +20°C° 0 mm 1 mps 667 mmHg 95%
    05:00 +21°C° 0 mm 1 mps 668 mmHg 92%
    06:00 +22°C° 0 mm 1 mps 668 mmHg 90%
    07:00 +21°C° 0 mm 0 mps 669 mmHg 87%
    08:00 +24°C° 0 mm 1 mps 669 mmHg 78%
    09:00 +26°C° 0 mm 1 mps 670 mmHg 69%
    10:00 +28°C° 0 mm 2 mps 670 mmHg 60%
    11:00 +29°C° 0 mm 2 mps 670 mmHg 56%
    12:00 +30°C° 0 mm 2 mps 669 mmHg 52%
    13:00 +31°C° 0 mm 2 mps 668 mmHg 47%
    14:00 +31°C° 0.1 mm 2 mps 668 mmHg 51%
    15:00 +30°C° 0.1 mm 2 mps 668 mmHg 54%
    16:00 +30°C° 0.1 mm 2 mps 667 mmHg 58%
    17:00 +28°C° 0.2 mm 2 mps 667 mmHg 65%
    18:00 +26°C° 0.2 mm 2 mps 668 mmHg 72%
    19:00 +24°C° 0.2 mm 2 mps 668 mmHg 80%
    20:00 +23°C° 0.6 mm 2 mps 668 mmHg 83%
    21:00 +22°C° 0.6 mm 1 mps 668 mmHg 86%
    22:00 +21°C° 0.6 mm 1 mps 669 mmHg 90%
    23:00 +21°C° 0.2 mm 1 mps 668 mmHg 90%

    1 March, Wednesday

    Time Temperature Precipitation Wind Pressure Humidity
    00:00 +21°C° 0.2 mm 1 mps 668 mmHg 91%
    01:00 +21°C° 0.2 mm 1 mps 668 mmHg 92%
    02:00 +21°C° 0.5 mm 1 mps 668 mmHg 93%
    03:00 +20°C° 0.5 mm 1 mps 668 mmHg 94%
    04:00 +20°C° 0.5 mm 1 mps 668 mmHg 95%
    05:00 +21°C° 0.1 mm 1 mps 669 mmHg 93%
    06:00 +21°C° 0.1 mm 1 mps 669 mmHg 92%
    07:00 +22°C° 0.1 mm 1 mps 670 mmHg 91%
    08:00 +24°C° 0.1 mm 1 mps 670 mmHg 81%
    09:00 +26°C° 0.1 mm 2 mps 670 mmHg 72%
    10:00 +28°C° 0.1 mm 2 mps 671 mmHg 62%
    11:00 +29°C° 0.2 mm 2 mps 670 mmHg 59%
    12:00 +30°C° 0.2 mm 2 mps 669 mmHg 56%
    13:00 +30°C° 0.2 mm 2 mps 669 mmHg 52%
    14:00 +30°C° 0.6 mm 2 mps 668 mmHg 59%
    15:00 +29°C° 0.6 mm 2 mps 668 mmHg 65%
    16:00 +28°C° 0.6 mm 2 mps 668 mmHg 71%
    17:00 +26°C° 0.3 mm 2 mps 668 mmHg 77%
    18:00 +25°C° 0.3 mm 2 mps 668 mmHg 83%
    19:00 +23°C° 0.3 mm 2 mps 669 mmHg 89%
    20:00 +23°C° 0.4 mm 2 mps 669 mmHg 90%
    21:00 +21°C° 0.4 mm 2 mps 669 mmHg 91%
    22:00 +21°C° 0.4 mm 2 mps 669 mmHg 92%
    23:00 +21°C° 0.3 mm 2 mps 669 mmHg 93%
    Show more